Location: アルンシュタイン
(50.0000°N, 10.0000°E)
Time: 00:17:24
(UTC+02:00)

Envisat - Visible Passes

Search period start: 27 May 2024 00:00
Search period end: 06 June 2024 00:00
Orbit: 762 x 764 km, 98.3° (Epoch: 26 May)

Date Brightness Start Highest point End Pass type
(mag) Time Alt. Az. Time Alt. Az. Time Alt. Az.
27 May 3.8 04:22:03 10° NNE 04:27:00 50° E 04:31:54 10° S visible
28 May 4.9 03:45:12 10° NE 03:49:22 25° E 03:53:30 10° SSE visible
29 May 5.6 03:09:32 10° ENE 03:11:30 12° E 03:13:29 10° ESE visible
30 May 4.3 04:09:04 10° NNE 04:13:49 39° E 04:18:33 10° SSE visible
31 May 5.3 03:32:27 10° NE 03:36:07 20° E 03:39:45 10° SE visible
02 Jun 4.6 03:56:08 10° NNE 04:00:37 31° E 04:05:05 10° SSE visible
03 Jun 5.4 03:19:52 10° NE 03:22:50 15° E 03:25:47 10° ESE visible
04 Jun 3.9 04:20:06 10° NNE 04:25:02 48° E 04:29:56 10° S visible
05 Jun 5.0 03:43:15 10° NE 03:47:23 24° E 03:51:28 10° SE visible
